EW0591 Weather Reports


time (UTC)temp
C
wind
direction
speed
KPH
gust
KPH
rain 1hr
cm
rain 24hr
cm
rain mn
cm
humidity
%
barometer
mb
20260503030822 12 232 0.0 0.0 0.00 0.00 0.00 69 1021.9
20260503030319 13 221 0.0 0.0 0.00 0.00 0.00 67 1021.8
20260503025815 13 260 0.0 0.0 0.00 0.00 0.00 68 1021.8
20260503025313 14 260 0.0 0.0 0.00 0.00 0.00 66 1021.6
20260503024809 15 260 0.0 0.0 0.00 0.00 0.00 65 1021.7
20260503024306 15 279 0.0 0.0 0.00 0.00 0.00 56 1021.7
20260503023803 16 239 0.0 0.0 0.00 0.00 0.00 53 1021.7
20260503023300 16 256 0.0 0.0 0.00 0.00 0.00 49 1021.7
20260503022756 17 258 0.0 0.0 0.00 0.00 0.00 49 1021.6
20260503022251 17 256 0.0 0.0 0.00 0.00 0.00 47 1021.7
20260503021748 18 275 0.0 0.0 0.00 0.00 0.00 45 1021.5
20260503021244 18 263 0.0 0.0 0.00 0.00 0.00 46 1021.6
20260503020742 19 250 0.0 0.0 0.00 0.00 0.00 45 1021.5
20260503020240 19 249 0.0 0.0 0.00 0.00 0.00 44 1021.3
20260503015736 20 240 0.0 0.0 0.00 0.00 0.00 43 1021.6
20260503015232 20 255 0.0 0.0 0.00 0.00 0.00 43 1021.2
20260503014728 21 260 0.0 0.0 0.00 0.00 0.00 40 1021.3
20260503014227 22 250 0.0 0.0 0.00 0.00 0.00 38 1021.1
20260503013724 22 246 0.0 0.0 0.00 0.00 0.00 37 1021.2
20260503013221 21 242 0.0 0.0 0.00 0.00 0.00 35 1021.5
20260503012718 21 279 0.0 1.6 0.00 0.00 0.00 35 1021.3
20260503012215 21 267 0.0 0.0 0.00 0.00 0.00 36 1021.6
20260503011712 22 272 1.6 1.6 0.00 0.00 0.00 36 1021.6
20260503011209 22 285 0.0 0.0 0.00 0.00 0.00 31 1021.7
20260503010705 23 247 4.8 4.8 0.00 0.00 0.00 31 1021.8
20260503010202 23 292 1.6 1.6 0.00 0.00 0.00 29 1021.5
20260503005659 22 278 1.6 1.6 0.00 0.00 0.00 33 1021.7
20260503005156 22 250 0.0 0.0 0.00 0.00 0.00 37 1021.7
20260503004653 23 318 1.6 1.6 0.00 0.00 0.00 29 1021.7
20260503004151 23 324 0.0 0.0 0.00 0.00 0.00 30 1021.6
20260503003648 22 347 3.2 3.2 0.00 0.00 0.00 29 1021.7
20260503003145 22 340 4.8 4.8 0.00 0.00 0.00 32 1021.7
20260503002642 22 332 6.4 8.0 0.00 0.00 0.00 33 1022.0
20260503002138 23 349 8.0 8.0 0.00 0.00 0.00 32 1021.8
20260503001634 23 267 3.2 3.2 0.00 0.00 0.00 28 1021.6
20260503001131 24 284 3.2 3.2 0.00 0.00 0.00 32 1021.6
20260503000629 24 249 0.0 0.0 0.00 0.00 0.00 26 1021.9
20260503000126 23 214 3.2 3.2 0.00 0.00 0.00 26 1021.7
20260502235623 23 221 0.0 1.6 0.00 0.00 0.00 29 1021.8
20260502235121 24 192 3.2 4.8 0.00 0.00 0.00 29 1021.9
20260502234616 24 219 3.2 3.2 0.00 0.00 0.00 27 1021.8
20260502234114 25 233 0.0 1.6 0.00 0.00 0.00 30 1021.9
20260502233609 24 230 0.0 0.0 0.00 0.00 0.00 26 1022.1
20260502233107 24 124 0.0 1.6 0.00 0.00 0.00 29 1022.1
20260502232603 25 257 0.0 0.0 0.00 0.00 0.00 27 1021.9
20260502232100 24 298 1.6 1.6 0.00 0.00 0.00 28 1022.1
20260502231557 23 304 3.2 4.8 0.00 0.00 0.00 27 1022.2
20260502231055 24 7 0.0 1.6 0.00 0.00 0.00 31 1022.5
20260502230553 24 317 3.2 4.8 0.00 0.00 0.00 25 1022.6
20260502230051 24 292 3.2 3.2 0.00 0.00 0.00 28 1022.5
20260502225546 23 305 3.2 3.2 0.00 0.00 0.00 27 1022.5
20260502225044 23 245 0.0 1.6 0.00 0.00 0.00 28 1022.5
20260502224540 23 289 1.6 1.6 0.00 0.00 0.00 30 1022.7
20260502224037 23 334 8.0 9.7 0.00 0.00 0.00 27 1022.5
20260502223535 24 154 6.4 8.0 0.00 0.00 0.00 28 1022.7
20260502223033 23 245 0.0 0.0 0.00 0.00 0.00 27 1022.9
20260502222530 23 235 4.8 8.0 0.00 0.00 0.00 27 1022.9
20260502222026 23 23 1.6 1.6 0.00 0.00 0.00 26 1022.9
20260502221522 23 166 3.2 3.2 0.00 0.00 0.00 28 1023.0
20260502221019 23 323 0.0 1.6 0.00 0.00 0.00 29 1023.1
20260502220515 22 232 0.0 0.0 0.00 0.00 0.00 30 1023.1
20260502220012 21 336 3.2 4.8 0.00 0.00 0.00 34 1023.3
20260502215509 21 328 6.4 8.0 0.00 0.00 0.00 34 1023.4
20260502215006 21 339 6.4 8.0 0.00 0.00 0.00 32 1023.4
20260502214503 21 322 11.3 11.3 0.00 0.00 0.00 34 1023.8
20260502214000 21 342 4.8 4.8 0.00 0.00 0.00 35 1023.4
20260502213456 21 317 4.8 4.8 0.00 0.00 0.00 37 1023.6
20260502212955 21 342 3.2 4.8 0.00 0.00 0.00 37 1023.4
20260502212453 21 328 4.8 4.8 0.00 0.00 0.00 33 1023.7
20260502211950 21 319 3.2 3.2 0.00 0.00 0.00 37 1023.4
20260502211446 21 312 3.2 3.2 0.00 0.00 0.00 36 1023.6
20260502210944 21 358 4.8 4.8 0.00 0.00 0.00 32 1023.7
20260502210440 21 317 8.0 9.7 0.00 0.00 0.00 32 1023.9
20260502205937 21 317 3.2 4.8 0.00 0.00 0.00 32 1023.8
20260502205433 21 319 4.8 4.8 0.00 0.00 0.00 33 1024.1
20260502204931 21 324 4.8 4.8 0.00 0.00 0.00 31 1024.0
20260502204428 20 314 6.4 8.0 0.00 0.00 0.00 34 1024.0
20260502203926 21 324 9.7 9.7 0.00 0.00 0.00 35 1024.1
20260502203423 21 313 6.4 8.0 0.00 0.00 0.00 35 1024.2
20260502202918 21 293 4.8 4.8 0.00 0.00 0.00 38 1023.7
20260502202416 21 339 6.4 8.0 0.00 0.00 0.00 34 1023.9
20260502201914 21 318 8.0 9.7 0.00 0.00 0.00 36 1023.9
20260502201409 21 344 8.0 9.7 0.00 0.00 0.00 36 1024.1
20260502200907 21 327 6.4 8.0 0.00 0.00 0.00 36 1024.2
20260502200402 21 309 4.8 4.8 0.00 0.00 0.00 34 1024.2
20260502195900 21 229 0.0 0.0 0.00 0.00 0.00 35 1024.2
20260502195356 21 275 0.0 0.0 0.00 0.00 0.00 37 1024.2
20260502194853 20 313 0.0 0.0 0.00 0.00 0.00 40 1024.7
20260502194350 20 303 4.8 4.8 0.00 0.00 0.00 41 1024.8
20260502193846 20 14 6.4 12.9 0.00 0.00 0.00 43 1024.5
20260502193343 20 340 8.0 9.7 0.00 0.00 0.00 38 1024.9
20260502192839 20 335 8.0 9.7 0.00 0.00 0.00 41 1024.9
20260502192336 20 275 1.6 3.2 0.00 0.00 0.00 40 1024.9
20260502191833 20 330 8.0 9.7 0.00 0.00 0.00 35 1024.9
20260502191331 20 325 6.4 8.0 0.00 0.00 0.00 36 1025.2
20260502190828 20 321 1.6 4.8 0.00 0.00 0.00 39 1025.3
20260502190325 20 299 4.8 8.0 0.00 0.00 0.00 35 1025.1
20260502185821 19 308 3.2 3.2 0.00 0.00 0.00 37 1025.3
20260502185317 18 265 1.6 3.2 0.00 0.00 0.00 39 1025.3
20260502184814 18 260 3.2 3.2 0.00 0.00 0.00 43 1025.3
20260502184309 18 270 3.2 3.2 0.00 0.00 0.00 40 1025.5
20260502183806 18 189 0.0 1.6 0.00 0.00 0.00 38 1025.4
20260502183302 18 75 0.0 3.2 0.00 0.00 0.00 40 1025.7
20260502182758 17 294 3.2 3.2 0.00 0.00 0.00 40 1025.5
20260502182253 17 341 3.2 3.2 0.00 0.00 0.00 41 1025.5
20260502181750 17 188 1.6 1.6 0.00 0.00 0.00 42 1026.0
20260502181249 17 309 4.8 4.8 0.00 0.00 0.00 38 1026.0
20260502180746 17 341 4.8 4.8 0.00 0.00 0.00 39 1026.2
20260502180244 17 254 0.0 0.0 0.00 0.00 0.00 46 1026.0
20260502170208 13 216 1.6 1.6 0.00 0.00 0.00 50 1026.6
20260502164155 12 351 4.8 4.8 0.00 0.00 0.00 56 1026.6
20260502163650 12 334 3.2 3.2 0.00 0.00 0.00 55 1026.9
20260502163147 12 324 3.2 3.2 0.00 0.00 0.00 58 1027.0
20260502162644 12 330 0.0 1.6 0.00 0.00 0.00 58 1026.9
20260502162141 12 265 0.0 1.6 0.00 0.00 0.00 56 1027.0
20260502161638 11 332 3.2 3.2 0.00 0.00 0.00 61 1027.2
20260502161135 11 344 4.8 4.8 0.00 0.00 0.00 60 1027.4
20260502160633 11 335 6.4 9.7 0.00 0.00 0.00 66 1027.2
20260502160131 11 7 6.4 9.7 0.00 0.00 0.00 65 1027.5
20260502152045 10 301 0.0 0.0 0.00 0.00 0.00 70 1027.8
20260502151543 10 232 0.0 0.0 0.00 0.00 0.00 64 1027.4
20260502151040 9 193 1.6 1.6 0.00 0.00 0.00 67 1027.8
20260502150538 8 184 0.0 0.0 0.00 0.00 0.00 67 1027.6
20260502130422 0 213 0.0 0.0 0.00 0.00 0.00 95 1027.8
20260502123405 0 212 0.0 0.0 0.00 0.00 0.00 95 1027.4
20260502122902 0 214 0.0 0.0 0.00 0.00 0.00 95 1027.5
20260502122358 0 214 0.0 0.0 0.00 0.00 0.00 94 1027.4
20260502121856 0 211 0.0 0.0 0.00 0.00 0.00 95 1027.4
20260502121353 0 211 0.0 1.6 0.00 0.00 0.00 94 1027.5
20260502120851 0 228 0.0 0.0 0.00 0.00 0.00 94 1027.5
20260502120347 0 235 0.0 0.0 0.00 0.00 0.00 94 1027.6
20260502115844 0 245 0.0 0.0 0.00 0.00 0.00 94 1027.4
20260502115341 0 245 0.0 0.0 0.00 0.00 0.00 94 1027.6
20260502114837 0 245 0.0 0.0 0.00 0.00 0.00 94 1027.4
20260502114335 0 245 0.0 0.0 0.00 0.00 0.00 94 1027.5
20260502113832 0 246 0.0 0.0 0.00 0.00 0.00 94 1027.8
20260502113329 0 246 0.0 0.0 0.00 0.00 0.00 94 1027.6
20260502112827 1 239 0.0 0.0 0.00 0.00 0.00 94 1027.3
20260502112324 1 240 0.0 0.0 0.00 0.00 0.00 94 1027.5
20260502111822 1 216 0.0 0.0 0.00 0.00 0.00 94 1027.5
20260502111319 1 216 0.0 0.0 0.00 0.00 0.00 94 1027.4
20260502110817 0 224 0.0 0.0 0.00 0.00 0.00 94 1027.4
20260502110314 0 224 0.0 0.0 0.00 0.00 0.00 94 1027.2
20260502105812 0 224 0.0 0.0 0.00 0.00 0.00 94 1027.5
20260502105308 0 223 0.0 0.0 0.00 0.00 0.00 94 1027.3
20260502104806 0 223 0.0 0.0 0.00 0.00 0.00 93 1027.1
20260502104303 1 184 1.6 1.6 0.00 0.00 0.00 94 1027.1
20260502103801 0 239 0.0 0.0 0.00 0.00 0.00 94 1027.2
20260502103258 0 239 0.0 0.0 0.00 0.00 0.00 93 1027.2
20260502102755 1 226 0.0 0.0 0.00 0.00 0.00 93 1027.2
20260502102251 1 229 0.0 0.0 0.00 0.00 0.00 93 1027.0
20260502101749 2 238 0.0 0.0 0.00 0.00 0.00 93 1027.0
20260502101247 1 217 0.0 0.0 0.00 0.00 0.00 93 1026.9
20260502100745 2 218 0.0 0.0 0.00 0.00 0.00 93 1026.9
20260502100244 1 232 0.0 0.0 0.00 0.00 0.00 93 1026.8
20260502091218 2 235 0.0 0.0 0.00 0.00 0.00 92 1026.9
20260502090715 2 248 0.0 0.0 0.00 0.00 0.00 91 1026.8
20260502090212 2 248 0.0 0.0 0.00 0.00 0.00 91 1026.5
20260502071113 3 259 0.0 0.0 0.00 0.00 0.00 88 1026.4
20260502070611 4 252 0.0 0.0 0.00 0.00 0.00 87 1026.2
20260502070109 4 242 0.0 0.0 0.00 0.00 0.00 87 1026.1
20260502065607 5 234 0.0 0.0 0.00 0.00 0.00 86 1025.8
20260502065104 5 234 0.0 0.0 0.00 0.00 0.00 86 1026.0
20260502064603 5 234 0.0 0.0 0.00 0.00 0.00 85 1026.1
20260502064059 5 235 0.0 0.0 0.00 0.00 0.00 85 1026.0
20260502063557 5 234 0.0 0.0 0.00 0.00 0.00 84 1026.0
20260502063055 5 209 0.0 0.0 0.00 0.00 0.00 83 1025.7
20260502062551 5 227 0.0 0.0 0.00 0.00 0.00 83 1025.8
20260502062049 5 202 0.0 1.6 0.00 0.00 0.00 83 1025.8
20260502061547 5 230 0.0 0.0 0.00 0.00 0.00 81 1025.7
20260502061044 6 192 0.0 0.0 0.00 0.00 0.00 81 1025.4
20260502060539 5 205 0.0 0.0 0.00 0.00 0.00 81 1025.7
20260502060037 5 246 0.0 0.0 0.00 0.00 0.00 81 1025.4
20260502055534 6 266 0.0 0.0 0.00 0.00 0.00 80 1025.8
20260502055032 6 214 0.0 0.0 0.00 0.00 0.00 79 1025.3
20260502054531 6 71 1.6 1.6 0.00 0.00 0.00 79 1025.5
20260502054027 6 247 1.6 3.2 0.00 0.00 0.00 78 1025.4
20260502053524 7 219 0.0 0.0 0.00 0.00 0.00 78 1025.2
20260502053022 7 207 0.0 0.0 0.00 0.00 0.00 74 1025.2
20260502052520 7 177 0.0 1.6 0.00 0.00 0.00 74 1025.3
20260502052018 7 207 0.0 0.0 0.00 0.00 0.00 71 1025.2
20260502051516 7 242 0.0 0.0 0.00 0.00 0.00 72 1025.1
20260502051013 7 220 0.0 0.0 0.00 0.00 0.00 71 1025.1
20260502050509 7 199 0.0 0.0 0.00 0.00 0.00 69 1025.1
20260502050007 7 190 1.6 1.6 0.00 0.00 0.00 71 1024.9
20260502045503 7 239 0.0 0.0 0.00 0.00 0.00 69 1024.9
20260502045001 8 246 0.0 1.6 0.00 0.00 0.00 70 1025.0
20260502044456 8 65 1.6 1.6 0.00 0.00 0.00 70 1025.0
20260502043953 7 323 0.0 0.0 0.00 0.00 0.00 72 1025.0
20260502043451 8 322 1.6 1.6 0.00 0.00 0.00 73 1024.8
20260502042950 9 346 3.2 3.2 0.00 0.00 0.00 66 1024.8
20260502042447 9 251 0.0 0.0 0.00 0.00 0.00 62 1024.7
20260502041945 9 272 0.0 0.0 0.00 0.00 0.00 65 1024.7
20260502041442 9 244 0.0 0.0 0.00 0.00 0.00 65 1024.7
20260502040939 9 166 1.6 1.6 0.00 0.00 0.00 62 1024.5
20260502040436 10 234 1.6 3.2 0.00 0.00 0.00 65 1024.5
20260502035932 10 133 3.2 3.2 0.00 0.00 0.00 63 1024.4
20260502035428 10 229 0.0 0.0 0.00 0.00 0.00 62 1024.5
20260502034926 10 196 0.0 1.6 0.00 0.00 0.00 61 1024.5
20260502034425 11 228 0.0 0.0 0.00 0.00 0.00 62 1024.1
20260502033923 11 317 1.6 3.2 0.00 0.00 0.00 58 1024.3
20260502033420 11 300 3.2 4.8 0.00 0.00 0.00 55 1024.3
20260502032916 11 221 0.0 0.0 0.00 0.00 0.00 59 1024.1
20260502032413 11 188 0.0 0.0 0.00 0.00 0.00 59 1024.3
20260502031910 13 163 0.0 0.0 0.00 0.00 0.00 51 1024.2
20260502031409 12 146 4.8 4.8 0.00 0.00 0.00 51 1024.0